This is the latest recevied weather packets stored in our database for station/object VK2BNC-13. If no packets are shown the sender has not sent any weather packets the latest 10 day(s).
| Time | Temp. | Humidity | Pressure | Rain* | Wind** | Luminosity | Snow |
|---|---|---|---|---|---|---|---|
| 1777871797 | 20.56° C | 82% | - | 0 mm | - | - | - |
| 1777870895 | 20° C | 83% | - | 0 mm | - | - | - |
| 1777869996 | 19.44° C | 85% | - | 0 mm | - | - | - |
| 1777869095 | 19.44° C | 86% | - | 0 mm | - | - | - |
| 1777868193 | 18.89° C | 86% | - | 0 mm | - | - | - |
| 1777867289 | 18.89° C | 86% | - | 0 mm | - | - | - |
| 1777866390 | 18.89° C | 87% | - | 0 mm | - | - | - |
| 1777865489 | 18.33° C | 88% | - | 0 mm | - | - | - |
| 1777864589 | 18.33° C | 91% | - | 0 mm | - | - | - |
| 1777863689 | 17.78° C | 93% | - | 0.51 mm | - | - | - |
| 1777862790 | 17.22° C | 94% | - | 1.52 mm | - | - | - |
| 1777861888 | 17.22° C | 95% | - | 1.52 mm | - | - | - |
| 1777860986 | 17.22° C | 95% | - | 2.03 mm | - | - | - |
| 1777860085 | 16.67° C | 96% | - | 1.78 mm | - | - | - |
| 1777859185 | 16.67° C | 96% | - | 2.03 mm | - | - | - |
| 1777858286 | 16.67° C | 96% | - | 3.3 mm | - | - | - |
| 1777857385 | 16.67° C | 95% | - | 3.05 mm | - | - | - |
| 1777856486 | 16.11° C | 95% | - | 2.79 mm | - | - | - |
| 1777855586 | 16.67° C | 95% | - | 2.29 mm | - | - | - |
| 1777854683 | 16.67° C | 95% | - | 1.02 mm | - | - | - |
| 1777853784 | 16.67° C | 95% | - | 0.76 mm | - | - | - |
| 1777852884 | 16.11° C | 96% | - | 1.02 mm | - | - | - |
| 1777851981 | 16.11° C | 96% | - | 1.27 mm | - | - | - |
| 1777851083 | 16.11° C | 96% | - | 1.27 mm | - | - | - |
| 1777850180 | 15.56° C | 96% | - | 1.27 mm | - | - | - |
* Rain latest hour (hover to see other rain measurements)
** Current wind speed in m/s (hover to see current wind gust speed)